Home > Time Zones > World Clock > Weather > Iran > Tehran > Past weeks

Flag for Iran Weather past 2 weeks in Tehran, Iran

Now
66 °F

Sunny.


Feels Like: 66 °F
Forecast: 50 / 74 °F
Wind: No wind

Location: Tehran-Mehrabad

Current Time: Oct 25, 2014 at 9:08:04 AM

Latest Report: Oct 25, 2014 at 8:30 AM


Visibility: 4 mi

Pressure: 30.07 "Hg

Humidity: 28%

Dew point: 32 °F

Location of TehranLocation

Historic Weather in Tehran — Graph

°F

Tehran temperature yesterday

Maximum temperature yesterday: 75 °F (at 2:00 PM)
Minimum temperature yesterday: 55 °F (at 3:30 AM)
Average temperature yesterday: 66 °F

Past Weeks' High & Low Weather Summary

 TemperatureHumidityPressure
High79 °F (Oct 16, 1:00 PM)93% (Oct 20, 10:30 AM)30.30 "Hg (Oct 20, 10:30 AM)
Low32 °F (Oct 20, 10:30 AM)12% (Oct 24, 5:00 PM)29.86 "Hg (Oct 19, 3:30 AM)
Average64 °F42%30.08 "Hg
* Reported Oct 10 7:30 AM — Oct 25 8:00 AM, Tehran, Weather by CustomWeather, © 2014

Note: Actual official high and low records may vary slightly from our data, if they occured in-between our weather recording intervals... More about our weather records

Advertising

Tehran weather history for previous 24 hours

 ConditionsComfort  
Time TempWeatherWind HumidityBarometerVisibility
8:00 AM
Oct 25
61 °FSunny.No wind31%30.07 "Hg4 mi
7:30 AM61 °FSunny.No wind31%30.07 "Hg5 mi
7:00 AM57 °FSunny.No wind39%30.07 "Hg5 mi
6:30 AM55 °FClear.No wind51%N/A10 mi
6:00 AM55 °FClear.No wind51%30.04 "Hg10 mi
5:30 AM55 °FClear.No wind51%30.04 "Hg10 mi
5:00 AM57 °FClear.No wind48%30.04 "Hg10 mi
4:30 AM57 °FClear.No wind48%30.04 "Hg10 mi
4:00 AM57 °FClear.No wind48%30.07 "Hg10 mi
3:30 AM57 °FClear.No wind44%30.04 "Hg10 mi
3:00 AM57 °FClear.No wind44%30.04 "Hg10 mi
2:30 AM57 °FClear.No wind44%30.04 "Hg10 mi
2:00 AM59 °FClear.No wind39%30.07 "Hg10 mi
1:30 AM59 °FClear.No wind34%30.04 "Hg10 mi
1:00 AM61 °FClear.No wind29%30.04 "Hg10 mi
12:30 AM61 °FClear.No wind29%30.04 "Hg10 mi
12:00 AM64 °FClear.No wind24%30.04 "Hg10 mi
11:30 PM
Oct 24
64 °FClear.No wind24%30.04 "Hg10 mi
11:00 PM64 °FClear.7 mph24%30.04 "Hg10 mi
10:30 PM64 °FClear.7 mph24%30.04 "Hg10 mi
10:00 PM64 °FClear.5 mph24%30.04 "Hg10 mi
9:30 PM64 °FClear.7 mph24%30.04 "Hg10 mi
9:00 PM66 °FClear.7 mph21%30.04 "Hg10 mi
8:30 PM70 °FClear.7 mph16%30.04 "Hg10 mi
8:00 PM68 °FClear.5 mph18%30.04 "Hg10 mi
7:30 PM68 °FClear.5 mph18%30.04 "Hg10 mi
7:00 PM66 °FClear.5 mph19%30.04 "Hg10 mi
6:30 PM70 °FClear.9 mph17%30.01 "Hg10 mi
6:00 PM72 °FClear.12 mph12%30.01 "Hg10 mi
5:30 PM73 °FSunny.12 mph14%30.01 "Hg10 mi
5:00 PM75 °FSunny.18 mph12%30.01 "Hg10 mi
4:30 PM75 °FSunny.18 mph15%30.01 "Hg10 mi
4:00 PM75 °FSunny.21 mph15%29.98 "Hg10 mi
3:30 PM75 °FSunny.18 mph18%30.01 "Hg10 mi
3:00 PM75 °FSunny.18 mph19%30.01 "Hg10 mi
2:30 PM75 °FSunny.14 mph19%30.01 "Hg10 mi
2:00 PM75 °FSunny.16 mph21%30.01 "Hg10 mi
1:30 PM73 °FSunny.12 mph23%30.04 "Hg10 mi
1:00 PM73 °FSunny.9 mph25%30.04 "Hg5 mi
12:30 PM73 °FSunny.9 mph25%30.04 "Hg5 mi
12:00 PM72 °FClear.7 mph27%30.07 "Hg4 mi
11:30 AM70 °FClear.7 mph29%30.07 "Hg4 mi
11:00 AM70 °FClear.7 mph29%30.07 "Hg4 mi
10:30 AM68 °FClear.5 mph30%30.09 "Hg4 mi
10:00 AM68 °FClear.7 mph30%30.09 "Hg4 mi
9:30 AM66 °FClear.5 mph32%30.09 "Hg4 mi
9:00 AM66 °FClear.No wind32%30.09 "Hg4 mi
Weather by CustomWeather, © 2014

See weather overviewHow to use our weather pages